Location: Newark
(43.0000°N, 1.6781°W)
Time: 09:46:35
(UTC+00:00)

NOAA 19 - Visible Passes

Search period start: 30 November 2022 00:00
Search period end: 10 December 2022 00:00
Orbit: 839 x 861 km, 99.1° (Epoch: 29 November)

Date Brightness Start Highest point End Pass type
(mag) Time Alt. Az. Time Alt. Az. Time Alt. Az.
30 Nov 7.5 19:29:34 12° N 19:29:34 12° N 19:29:54 10° N visible
01 Dec 7.5 19:17:33 12° N 19:17:33 12° N 19:17:52 10° N visible
02 Dec 7.4 19:05:30 11° N 19:05:30 11° N 19:05:48 10° N visible
03 Dec 7.4 18:53:28 11° N 18:53:28 11° N 18:53:40 10° N visible
04 Dec 7.4 18:41:25 10° N 18:41:25 10° N 18:41:29 10° N visible
